Jonesville, VA

8:08 AM EST on January 23, 2018 (GMT -0500)
Jonesville

Weather History for K0VG - August, 2013

Change the Weather History Date:

Monday, August 26, 2013

  Actual Average (KLNP) Record (KLNP)
Temperature  
Mean Temperature 68 °F -  
Max Temperature 82 °F 78 °F 87 °F (2003)
Min Temperature 53 °F 59 °F 53 °F (2015)
Cooling Degree Days 2    
Growing Degree Days 18 (Base 50)    
Moisture  
Dew Point 61 °F    
Average Humidity 82    
Maximum Humidity 100    
Minimum Humidity 51    
Precipitation  
Precipitation 0.00 in - - ()
Sea Level Pressure  
Sea Level Pressure 30.30 in    
Wind  
Wind Speed 0 mph (SW)    
Max Wind Speed 4 mph    
Max Gust Speed -    
Visibility 10 miles    
Events      
Averages and records for this station are not official NWS values.
T = Trace of Precipitation, MM = Missing Value Source: NWS Daily Summary

Daily Weather History Graph

Daily Weather History Graph

Search for Another Location

Airport or City:

Trip Planner

Search our weather history database for the weather conditions in past years. The results will help you decide how hot, cold, wet, or windy it might be!

Date:

Astronomy

Aug. 26, 2013 Rise Set
Actual Time 6:59 AM EDT 8:09 PM EDT
Civil Twilight 6:32 AM EDT 8:35 PM EDT
Nautical Twilight 6:00 AM EDT 9:07 PM EDT
Astronomical Twilight 5:27 AM EDT 9:40 PM EDT
Moon 11:30 PM EDT (8/26) 12:49 PM EDT (8/26)
Length of Visible Light 14h 03m
Length of Day
13h 09m
Waning Gibbous, 67% of the Moon is Illuminated
Aug 26
Waning Gibbous
Aug 28
Last Quarter
Sep 5
New
Sep 12
First Quarter
Sep 19
Full

Hourly Weather History & Observations

Time (EDT) Temp. Heat Index Dew Point Humidity Pressure Visibility Wind Dir Wind Speed Gust Speed Precip Events Conditions
12:15 AM 60.8 °F - 60.8 °F 100% 30.36 in 10.0 mi Calm Calm - N/A   Unknown
12:35 AM 59.0 °F - 59.0 °F 100% 30.36 in 10.0 mi Calm Calm - N/A   Unknown
12:55 AM 59.0 °F - 59.0 °F 100% 30.37 in 10.0 mi Calm Calm - N/A   Unknown
1:15 AM 59.0 °F - 59.0 °F 100% 30.37 in 9.0 mi Calm Calm - N/A   Unknown
1:35 AM 59.0 °F - 59.0 °F 100% 30.37 in 10.0 mi Calm Calm - N/A   Unknown
1:55 AM 59.0 °F - 59.0 °F 100% 30.36 in 10.0 mi Calm Calm - N/A   Unknown
2:15 AM 59.0 °F - 59.0 °F 100% 30.36 in 10.0 mi Calm Calm - N/A   Unknown
2:35 AM 59.0 °F - 59.0 °F 100% 30.35 in 10.0 mi Calm Calm - N/A   Unknown
2:55 AM 59.0 °F - 57.2 °F 94% 30.35 in 10.0 mi Calm Calm - N/A   Unknown
3:15 AM 57.2 °F - 57.2 °F 100% 30.34 in 9.0 mi Calm Calm - N/A   Unknown
3:35 AM 57.2 °F - 57.2 °F 100% 30.34 in 9.0 mi Calm Calm - N/A   Unknown
3:55 AM 57.2 °F - 57.2 °F 100% 30.34 in 10.0 mi Calm Calm - N/A   Unknown
4:15 AM 55.4 °F - 55.4 °F 100% 30.34 in 10.0 mi Calm Calm - N/A   Unknown
4:35 AM 57.2 °F - 57.2 °F 100% 30.34 in 10.0 mi Calm Calm - N/A   Unknown
4:55 AM 55.4 °F - 55.4 °F 100% 30.34 in 10.0 mi Calm Calm - N/A   Unknown
5:15 AM 55.4 °F - 55.4 °F 100% 30.34 in 9.0 mi Calm Calm - N/A   Unknown
5:35 AM 55.4 °F - 55.4 °F 100% 30.34 in 8.0 mi Calm Calm - N/A   Unknown
5:55 AM 55.4 °F - 55.4 °F 100% 30.34 in 10.0 mi Calm Calm - N/A   Unknown
6:15 AM 55.4 °F - 55.4 °F 100% 30.34 in 10.0 mi Calm Calm - N/A   Unknown
6:35 AM 53.6 °F - 53.6 °F 100% 30.35 in 2.0 mi Calm Calm - N/A   Mist
6:55 AM 55.4 °F - 55.4 °F 100% 30.35 in 7.0 mi Calm Calm - N/A   Unknown
7:15 AM 55.4 °F - 55.4 °F 100% 30.36 in 10.0 mi Calm Calm - N/A   Unknown
7:35 AM 55.4 °F - 55.4 °F 100% 30.36 in 10.0 mi Calm Calm - N/A   Clear
7:55 AM 57.2 °F - 57.2 °F 100% 30.36 in 10.0 mi Calm Calm - N/A   Clear
8:15 AM 57.2 °F - 57.2 °F 100% 30.36 in 10.0 mi Calm Calm - N/A   Clear
8:35 AM 59.0 °F - 57.2 °F 94% 30.36 in 10.0 mi Calm Calm - N/A   Clear
8:55 AM 60.8 °F - 59.0 °F 94% 30.37 in 10.0 mi Calm Calm - N/A   Clear
9:15 AM 62.6 °F - 59.0 °F 88% 30.37 in 10.0 mi Calm Calm - N/A   Clear
9:35 AM 64.4 °F - 59.0 °F 83% 30.38 in 10.0 mi Calm Calm - N/A   Clear
9:55 AM 66.2 °F - 59.0 °F 78% 30.38 in 10.0 mi Calm Calm - N/A   Clear
10:15 AM 68.0 °F - 59.0 °F 73% 30.38 in 10.0 mi Calm Calm - N/A   Clear
10:35 AM 69.8 °F - 59.0 °F 68% 30.37 in 10.0 mi Calm Calm - N/A   Clear
10:55 AM 71.6 °F - 59.0 °F 64% 30.37 in 10.0 mi Calm Calm - N/A   Clear
11:15 AM 73.4 °F - 59.0 °F 61% 30.36 in 10.0 mi Calm Calm - N/A   Partly Cloudy
11:35 AM 75.2 °F - 59.0 °F 57% 30.36 in 10.0 mi Calm Calm - N/A   Partly Cloudy
11:55 AM 75.2 °F - 60.8 °F 61% 30.35 in 10.0 mi Calm Calm - N/A   Clear
12:15 PM 75.2 °F - 62.6 °F 65% 30.34 in 10.0 mi Calm Calm - N/A   Clear
12:35 PM 77.0 °F - 62.6 °F 61% 30.34 in 10.0 mi Calm Calm - N/A   Clear
12:55 PM 77.0 °F - 62.6 °F 61% 30.33 in 10.0 mi Calm Calm - N/A   Clear
1:15 PM 80.6 °F 82.3 °F 64.4 °F 58% 30.32 in 10.0 mi Calm Calm - N/A   Clear
1:35 PM 80.6 °F 81.8 °F 62.6 °F 54% 30.31 in 10.0 mi Calm Calm - N/A   Clear
1:55 PM 80.6 °F 81.8 °F 62.6 °F 54% 30.31 in 10.0 mi Calm Calm - N/A   Clear
2:15 PM 82.4 °F 83.9 °F 64.4 °F 54% 30.30 in 10.0 mi SW 3.5 mph - N/A   Clear
2:35 PM 82.4 °F 83.4 °F 62.6 °F 51% 30.29 in 10.0 mi Calm Calm - N/A   Partly Cloudy
2:55 PM 82.4 °F 83.9 °F 64.4 °F 54% 30.29 in 10.0 mi Calm Calm - N/A   Partly Cloudy
3:15 PM 82.4 °F 83.4 °F 62.6 °F 51% 30.27 in 10.0 mi Calm Calm - N/A   Partly Cloudy
3:35 PM 82.4 °F 83.4 °F 62.6 °F 51% 30.26 in 10.0 mi Calm Calm - N/A   Clear
3:55 PM 82.4 °F 83.9 °F 64.4 °F 54% 30.26 in 10.0 mi Calm Calm - N/A   Partly Cloudy
4:35 PM 82.4 °F 83.9 °F 64.4 °F 54% 30.24 in 10.0 mi Calm Calm - N/A   Partly Cloudy
4:55 PM 82.4 °F 83.9 °F 64.4 °F 54% 30.24 in 10.0 mi Calm Calm - N/A   Clear
5:15 PM 82.4 °F 83.4 °F 62.6 °F 51% 30.23 in 10.0 mi Calm Calm - N/A   Clear
5:35 PM 82.4 °F 83.9 °F 64.4 °F 54% 30.23 in 10.0 mi Calm Calm - N/A   Partly Cloudy
5:55 PM 80.6 °F 82.7 °F 66.2 °F 61% 30.22 in 10.0 mi Calm Calm - N/A   Clear
6:15 PM 77.0 °F - 66.2 °F 69% 30.22 in 10.0 mi Calm Calm - N/A   Partly Cloudy
6:35 PM 77.0 °F - 66.2 °F 69% 30.22 in 10.0 mi Calm Calm - N/A   Partly Cloudy
6:55 PM 77.0 °F - 68.0 °F 74% 30.21 in 10.0 mi Calm Calm - N/A   Partly Cloudy
7:15 PM 78.8 °F - 66.2 °F 65% 30.20 in 10.0 mi Calm Calm - N/A   Partly Cloudy
7:35 PM 77.0 °F - 68.0 °F 74% 30.20 in 10.0 mi Calm Calm - N/A   Clear
7:55 PM 75.2 °F - 69.8 °F 83% 30.20 in 10.0 mi Calm Calm - N/A   Unknown
8:15 PM 73.4 °F - 69.8 °F 88% 30.20 in 10.0 mi Calm Calm - N/A   Unknown
8:35 PM 71.6 °F - 68.0 °F 88% 30.20 in 10.0 mi Calm Calm - N/A   Unknown
8:55 PM 69.8 °F - 68.0 °F 94% 30.21 in 10.0 mi Calm Calm - N/A   Unknown
9:15 PM 69.8 °F - 68.0 °F 94% 30.21 in 10.0 mi Calm Calm - N/A   Unknown
9:35 PM 68.0 °F - 68.0 °F 100% 30.21 in 10.0 mi Calm Calm - N/A   Unknown
9:55 PM 68.0 °F - 66.2 °F 94% 30.22 in 9.0 mi Calm Calm - N/A   Unknown
10:15 PM 66.2 °F - 66.2 °F 100% 30.22 in 7.0 mi Calm Calm - N/A   Unknown
10:35 PM 66.2 °F - 66.2 °F 100% 30.23 in 10.0 mi Calm Calm - N/A   Unknown
10:55 PM 66.2 °F - 66.2 °F 100% 30.23 in 8.0 mi Calm Calm - N/A   Unknown
11:15 PM 64.4 °F - 64.4 °F 100% 30.23 in 6.0 mi Calm Calm - N/A   Mist
11:35 PM 66.2 °F - 66.2 °F 100% 30.23 in 5.0 mi Calm Calm - N/A   Mist
11:55 PM 64.4 °F - 64.4 °F 100% 30.23 in 5.0 mi Calm Calm - N/A   Mist